Location: Burjasot
(39.5167°N, 0.4167°W)
Time: 07:10:46
(UTC+02:00)

ISS - Pass Details

Date: 21 May 2019
Orbit: 408 x 418 km, 51.6° (Epoch: 19 June)

Event Time Altitude Azimuth Distance (km) Brightness Sun altitude
Rises 01:49:56 0° 312° (NW) 2,364 0.6 -30.4°
Reaches altitude 10° 01:53:14 10° 347° (NNW) 1,502 -0.1 -30.4°
Maximum altitude 01:54:29 12° 9° (N) 1,408 -0.3 -30.4°
Drops below altitude 10° 01:55:45 10° 31° (NNE) 1,503 -0.3 -30.4°
Enters shadow 01:56:51 - 46° (NE) 1,721 -0.1 -30.4°
